This is the latest recevied weather packets stored in our database for station/object IR3AS. If no packets are shown the sender has not sent any weather packets the latest 10 day(s).
| Time | Temp. | Humidity | Pressure | Rain* | Wind** | Luminosity | Snow |
|---|---|---|---|---|---|---|---|
| 1777733759 | 12.22° C | 50% | 864.4 hPa | 0 mm | - | - | - |
| 1777733459 | 12.78° C | 49% | 864.3 hPa | 0 mm | - | - | - |
| 1777733159 | 13.33° C | 49% | 864 hPa | 0 mm | - | - | - |
| 1777732891 | 13.89° C | 49% | 864.1 hPa | 0 mm | - | - | - |
| 1777732859 | 13.89° C | 49% | 864.1 hPa | 0 mm | - | - | - |
| 1777732559 | 14.44° C | 48% | 864.1 hPa | 0 mm | - | - | - |
| 1777732259 | 15° C | 47% | 864.1 hPa | 0 mm | - | - | - |
| 1777731959 | 15.56° C | 47% | 864 hPa | 0 mm | - | - | - |
| 1777731659 | 15.56° C | 48% | 864 hPa | 0 mm | - | - | - |
| 1777731359 | 15.56° C | 49% | 864.2 hPa | 0 mm | - | - | - |
| 1777731059 | 15.56° C | 51% | 864.2 hPa | 0 mm | - | - | - |
| 1777730759 | 15° C | 52% | 864.2 hPa | 0 mm | - | - | - |
| 1777730459 | 14.44° C | 53% | 864.1 hPa | 0 mm | - | - | - |
| 1777730159 | 13.89° C | 53% | 864.3 hPa | 0 mm | - | - | - |
| 1777729859 | 13.33° C | 54% | 864 hPa | 0 mm | - | - | - |
| 1777729559 | 12.78° C | 54% | 864 hPa | 0 mm | - | - | - |
| 1777729259 | 12.78° C | 54% | 864.1 hPa | 0 mm | - | - | - |
| 1777728959 | 12.78° C | 53% | 864.3 hPa | 0 mm | - | - | - |
| 1777728659 | 12.22° C | 54% | 864.1 hPa | 0 mm | - | - | - |
| 1777728359 | 12.78° C | 53% | 864.4 hPa | 0 mm | - | - | - |
| 1777728115 | 12.78° C | 53% | 864.5 hPa | 0 mm | - | - | - |
| 1777728059 | 12.78° C | 53% | 864.5 hPa | 0 mm | - | - | - |
| 1777727759 | 12.78° C | 53% | 864.2 hPa | 0 mm | - | - | - |
| 1777727459 | 12.78° C | 54% | 864.1 hPa | 0 mm | - | - | - |
| 1777727194 | 12.78° C | 53% | 864.4 hPa | 0 mm | - | - | - |
* Rain latest hour (hover to see other rain measurements)
** Current wind speed in m/s (hover to see current wind gust speed)